Marrakech, Morocco

7:06 PM WEST on April 23, 2017 (GMT +0100)
Marrakech

Weather History for GMMX - July, 2012

Change the Weather History Date:

Saturday, July 28, 2012

  Actual Average Record
Temperature  
Mean Temperature 79 °F -  
Max Temperature 95 °F 94 °F 113 °F (2007)
Min Temperature 63 °F 67 °F 32 °F (2007)
Cooling Degree Days 14    
Growing Degree Days 29 (Base 50)    
Moisture  
Dew Point 58 °F    
Average Humidity 49    
Maximum Humidity 77    
Minimum Humidity 17    
Precipitation  
Precipitation 0.00 in 0.00 in - ()
Sea Level Pressure  
Sea Level Pressure 29.99 in    
Wind  
Wind Speed 5 mph ()    
Max Wind Speed 15 mph    
Max Gust Speed 25 mph    
Visibility 6.1 miles    
Events      
Averages and records for this station are not official NWS values.
T = Trace of Precipitation, MM = Missing Value Source: Averaged Metar Reports

Daily Weather History Graph

Daily Weather History Graph

Search for Another Location

Airport or City:

Trip Planner

Search our weather history database for the weather conditions in past years. The results will help you decide how hot, cold, wet, or windy it might be!

Date:

Astronomy

Jul. 28, 2012 Rise Set
Actual Time 5:45 AM WET 7:31 PM WET
Civil Twilight 5:19 AM WET 7:57 PM WET
Nautical Twilight 4:46 AM WET 8:29 PM WET
Astronomical Twilight 4:12 AM WET 9:03 PM WET
Moon 3:17 PM WET (7/28) 12:55 AM WET (7/28)
Length of Visible Light 14h 38m
Length of Day
13h 45m
Waxing Gibbous, 74% of the Moon is Illuminated
Jul 28
Waxing Gibbous
Aug 2
Full
Aug 9
Last Quarter
Aug 17
New
Aug 24
First Quarter

Hourly Weather History & Observations

Time (WET) Temp. Heat Index Dew Point Humidity Pressure Visibility Wind Dir Wind Speed Gust Speed Precip Events Conditions
12:00 AM 72 °F - 58 °F 53% 29.99 in 6 mi NNE 4.6 mph - -   Scattered Clouds
12:00 AM 73.4 °F - 59.0 °F 61% 30.04 in 6.2 mi NNE 4.6 mph - N/A   Partly Cloudy
12:30 AM 71.6 °F - 59.0 °F 64% 30.04 in - NNE 5.8 mph - N/A   Clear
1:00 AM 71.6 °F - 59.0 °F 64% 30.04 in - NNE 5.8 mph - N/A   Clear
1:30 AM 71.6 °F - 59.0 °F 64% 30.04 in - NNE 6.9 mph - N/A   Clear
2:00 AM 69.8 °F - 59.0 °F 68% 30.01 in - North 5.8 mph - N/A   Clear
2:30 AM 69.8 °F - 59.0 °F 68% 30.01 in - NNE 4.6 mph - N/A   Clear
3:00 AM 69 °F - 58 °F 59% 29.96 in 6 mi NNE 3.5 mph - -  
3:00 AM 69.8 °F - 57.2 °F 64% 30.01 in 6.2 mi NNE 3.5 mph - N/A   Unknown
3:30 AM 68.0 °F - 57.2 °F 68% 30.01 in 6.2 mi NE 3.5 mph - N/A   Unknown
4:00 AM 66.2 °F - 57.2 °F 73% 30.01 in - WSW 3.5 mph - N/A   Clear
4:30 AM 68.0 °F - 57.2 °F 68% 30.01 in - Variable 2.3 mph - N/A   Clear
5:00 AM 66.2 °F - 57.2 °F 73% 30.01 in - Variable 1.2 mph - N/A   Clear
5:30 AM 64.4 °F - 57.2 °F 77% 30.01 in - WSW 3.5 mph - N/A   Clear
6:00 AM 64 °F - 57 °F 73% 29.99 in 6 mi WSW 4.6 mph - -  
6:00 AM 64.4 °F - 57.2 °F 77% 30.01 in - WSW 4.6 mph - N/A   Clear
6:30 AM 68.0 °F - 57.2 °F 68% 30.01 in - SW 4.6 mph - N/A   Clear
7:00 AM 69.8 °F - 59.0 °F 68% 30.04 in - WSW 4.6 mph - N/A   Clear
7:30 AM 71.6 °F - 59.0 °F 64% 30.04 in - WSW 5.8 mph - N/A   Clear
8:00 AM 73.4 °F - 59.0 °F 61% 30.04 in - West 4.6 mph - N/A   Clear
8:30 AM 75.2 °F - 60.8 °F 61% 30.04 in - WNW 3.5 mph - N/A   Clear
9:00 AM 78 °F - 60 °F 44% 29.96 in 6 mi NNW 3.5 mph - -  
9:00 AM 77.0 °F - 60.8 °F 57% 30.04 in - WNW 3.5 mph - N/A   Clear
9:30 AM 80.6 °F 81.5 °F 60.8 °F 51% 30.04 in - Variable 2.3 mph - N/A   Clear
10:00 AM 80.6 °F 81.5 °F 60.8 °F 51% 30.04 in - NNE 4.6 mph - N/A   Clear
10:30 AM 82.4 °F 82.9 °F 60.8 °F 48% 30.04 in - Variable 4.6 mph - N/A   Clear
11:00 AM 84.2 °F 84.4 °F 60.8 °F 45% 30.01 in - Variable 5.8 mph - N/A   Clear
11:30 AM 84.2 °F 83.8 °F 59.0 °F 42% 30.01 in 6.2 mi NNW 8.1 mph - N/A   Unknown
12:00 PM 86.0 °F 85.4 °F 59.0 °F 40% 30.01 in 6.2 mi North 6.9 mph - N/A   Unknown
12:30 PM 87.8 °F 87.1 °F 59.0 °F 38% 30.01 in - Variable 5.8 mph - N/A   Clear
1:00 PM 89.6 °F 88.9 °F 59.0 °F 36% 30.01 in - Variable 4.6 mph - N/A   Clear
1:30 PM 91.4 °F 90.7 °F 59.0 °F 34% 29.98 in - Variable 4.6 mph - N/A   Clear
2:00 PM 93.2 °F 92.6 °F 59.0 °F 32% 29.98 in - Variable 3.5 mph - N/A   Clear
2:30 PM 93.2 °F 91.9 °F 57.2 °F 30% 29.98 in - Variable 6.9 mph - N/A   Clear
3:00 PM 93 °F - 57 °F 20% 29.86 in 6 mi NNE 8.1 mph - -  
3:00 PM 93.2 °F 91.9 °F 57.2 °F 30% 29.98 in - North 8.1 mph - N/A   Clear
3:30 PM 93.2 °F 91.9 °F 57.2 °F 30% 29.95 in - North 5.8 mph - N/A   Clear
4:00 PM 93.2 °F 91.9 °F 57.2 °F 30% 29.95 in - North 6.9 mph - N/A   Clear
4:30 PM 93.2 °F 91.3 °F 55.4 °F 28% 29.95 in - NE 8.1 mph - N/A   Clear
5:00 PM 95.0 °F 93.0 °F 55.4 °F 26% 29.95 in - Variable 5.8 mph - N/A   Clear
5:30 PM 95.0 °F 93.0 °F 55.4 °F 26% 29.95 in - NNW 6.9 mph - N/A   Clear
6:00 PM 94 °F - 54 °F 17% 29.82 in 6 mi North 8.1 mph - -  
6:00 PM 93.2 °F 90.8 °F 53.6 °F 26% 29.95 in - North 8.1 mph - N/A   Clear
6:30 PM 93.2 °F 90.8 °F 53.6 °F 26% 29.95 in - NNE 8.1 mph - N/A   Clear
7:00 PM 91.4 °F 89.1 °F 53.6 °F 28% 29.95 in - NNE 9.2 mph - N/A   Clear
7:30 PM 87.8 °F 86.1 °F 55.4 °F 33% 29.95 in - North 10.4 mph - N/A   Clear
8:00 PM 84.2 °F 83.5 °F 57.2 °F 40% 29.95 in - North 13.8 mph 25.3 mph N/A   Clear
8:30 PM 82.4 °F 82.0 °F 57.2 °F 42% 29.98 in - NNE 15.0 mph - N/A   Clear
9:00 PM 80 °F - 58 °F 37% 29.90 in 6 mi NNE 12.7 mph - -  
9:00 PM 80.6 °F 80.8 °F 57.2 °F 45% 29.98 in - NNE 13.8 mph - N/A   Clear
9:30 PM 78.8 °F - 57.2 °F 47% 29.98 in - NNE 11.5 mph - N/A   Clear
10:00 PM 78.8 °F - 57.2 °F 47% 30.01 in - NE 10.4 mph - N/A   Clear
10:30 PM 77.0 °F - 59.0 °F 54% 30.01 in - NE 9.2 mph - N/A   Clear
11:00 PM 77.0 °F - 57.2 °F 50% 30.01 in - ENE 8.1 mph - N/A   Clear
11:30 PM 77.0 °F - 59.0 °F 54% 30.01 in - NE 6.9 mph - N/A   Clear